STARLINK-2178, 47760

Orbit data source: Space-Track

STARLINK-2178, 47760 is a payload satellite owned by SpaceX/Seattle (US) in LEO that was launched on Thu, 04 Mar 2021 UTC via an FALCON 9 launch vehicle from the Air Force Eastern Test Range (AFETR). Payload-class satellites include a variety of spacecraft equipped with specific instruments for various scientific and technological missions. These include communications satellites like Starlink; space stations such as the ISS; scientific satellites like the Hubble; Earth observation satellites from companies like Planet Labs, Umbra, and HawkEye 360; GPS; miniature CubeSats for education and research; and military/defense satellites.

Loading next visibility...
Identifier
47760, 2021-017AQ
Orbit
LEO
Country
Flag of USUS
Related business
Manufacturer
SpaceX/Seattle
Mission
Operational Commercial Communications
Bus & Motor
STARLINK, Unknown motor
Mass
260 kg wet, ~248 kg dry
Launch date (UTC)
2021-03-04 (5 years ago)
Launch vehicle
FALCON 9
Launch site
Air Force Eastern Test Range (AFETR)
Object type
Payload
Rocket body
Debris
Shape & HBR
Box + 1 Pan, 10.1 m
Radar Cross Section
13.562 m², Large (>1 m²)

Expand to show TLE details & history
Last TLE update: 7 hours ago

TLE from 7 hours ago
0 STARLINK-2178
1 47760U 21017AQ  26236.56594620  .00000298  00000-0  21355-4 0  9990
2 47760  53.1591 155.4904 0001135  96.5430 263.5701 15.31700257303411
Epoch: 2026-08-24T13:34Z
TLE epoch observation values (Epoch: 2026-08-24T13:34:57.751Z)
Latitude
-0°
Longitude
-21.09605°
Altitude
471.727 km
Speed
7.631 km/s
True Right ascension
10h 21m 57s
True Declination
0° 00' 00"
Sunlit
Object was in daylight at epoch
Visualization orbit readout
Latitude
Unknown
Longitude
Unknown
Altitude
Unknown
Speed
Unknown
Apparent Right ascension
Unknown
Apparent Declination
Unknown
Sunlit
N/A
Visualization observer readout
Local Sidereal Time
12:10:05
Azimuth
Unknown
Elevation
Unknown
Doppler factor
Unknown
Orbital elements
Apogee altitude
471.773 km
Perigee altitude
470.219 km
Semi-major axis
6,849.133 km
Eccentricity
0.00011
Inclination
53.1591°
RAAN
155.4904°
Arg. of periapsis
96.543°
True anomaly
263.55718°
Mean anomaly
263.5701°
Eccentric anomaly
263.56364°
Mean motion
3.82904 °/min
Orbital period
94.02 mins
BSTAR
0.000021355
Loading maneuver chart data...
Computing Atmospheric mass density...

Documentation

Showing up to 5 results
|